GW0759 Weather Reports


Display with metric or nautical units.
time (UTC)temp
F
wind
direction
speed
MPH
gust
MPH
rain 1hr
in
rain 24hr
in
rain mn
in
humidity
%
barometer
mb
20260903053056 79 78 3.0 7.0 0.00 0.00 0.00 72 1012.4
20260903051555 80 134 2.0 5.0 0.00 0.00 0.00 72 1012.3
20260903050050 80 129 2.0 7.0 0.00 0.00 0.00 71 1012.3
20260903044559 80 105 2.0 5.0 0.00 0.00 0.00 71 1012.2
20260903043055 81 0 2.0 4.0 0.00 0.00 0.00 69 1012.0
20260903041552 82 132 2.0 8.0 0.00 0.00 0.00 68 1012.2
20260903040059 82 132 2.0 8.0 0.00 0.00 0.00 67 1012.2
20260903034600 83 142 2.0 6.0 0.00 0.00 0.00 67 1012.3
20260903033102 84 114 3.0 7.0 0.00 0.00 0.00 65 1012.1
20260903031633 84 132 3.0 10.0 0.00 0.00 0.00 65 1012.2
20260903030100 85 99 3.0 11.0 0.00 0.00 0.00 64 1012.0
20260903024556 85 118 2.0 6.0 0.00 0.00 0.00 63 1011.7
20260903023059 85 132 2.0 6.0 0.00 0.00 0.00 62 1011.5
20260903021607 86 110 2.0 5.0 0.00 0.00 0.00 61 1011.2
20260903020057 86 141 1.0 7.0 0.00 0.00 0.00 60 1011.0
20260903014557 87 151 4.0 10.0 0.00 0.00 0.00 59 1010.8
20260903013055 88 154 4.0 9.0 0.00 0.00 0.00 56 1010.7
20260903011601 89 168 5.0 12.0 0.00 0.00 0.00 54 1010.6
20260903010101 90 86 2.0 9.0 0.00 0.00 0.00 49 1010.5
20260903004557 92 96 7.0 15.0 0.00 0.00 0.00 45 1010.5
20260903003104 94 120 5.0 15.0 0.00 0.00 0.00 44 1010.3
20260903001604 96 151 5.0 14.0 0.00 0.00 0.00 42 1010.2
20260903000058 99 107 4.0 9.0 0.00 0.00 0.00 36 1010.1
20260902234602 100 127 2.0 10.0 0.00 0.00 0.00 34 1010.0
20260902233101 102 182 4.0 11.0 0.00 0.00 0.00 32 1010.0
20260902231610 102 142 3.0 9.0 0.00 0.00 0.00 32 1010.2
20260902230058 100 262 4.0 9.0 0.00 0.00 0.00 34 1010.1
20260902224604 103 166 6.0 9.0 0.00 0.00 0.00 32 1010.1
20260902223101 103 96 4.0 11.0 0.00 0.00 0.00 32 1010.2
20260902221558 102 77 4.0 10.0 0.00 0.00 0.00 32 1010.2
20260902214601 102 113 3.0 13.0 0.00 0.00 0.00 35 1010.3
20260902213106 100 292 3.0 11.0 0.00 0.00 0.00 36 1010.6
20260902211554 100 342 4.0 12.0 0.00 0.00 0.00 36 1010.6
20260902210100 102 360 4.0 11.0 0.00 0.00 0.00 35 1010.8
20260902204605 99 271 1.0 10.0 0.00 0.00 0.00 38 1010.8
20260902203117 101 37 4.0 9.0 0.00 0.00 0.00 36 1011.0
20260902201555 101 123 4.0 9.0 0.00 0.00 0.00 35 1011.2
20260902200059 101 344 3.0 8.0 0.00 0.00 0.00 35 1011.4
20260902194603 99 328 3.0 10.0 0.00 0.00 0.00 37 1011.5
20260902193105 100 181 2.0 9.0 0.00 0.00 0.00 37 1011.8
20260902191605 99 319 3.0 9.0 0.00 0.00 0.00 38 1012.1
20260902184640 98 347 4.0 10.0 0.00 0.00 0.00 38 1012.6
20260902183123 97 245 5.0 12.0 0.00 0.00 0.00 39 1012.9
20260902181605 98 132 3.0 10.0 0.00 0.00 0.00 40 1013.1
20260902180054 97 285 5.0 13.0 0.00 0.00 0.00 40 1013.5
20260902174606 97 259 2.0 8.0 0.00 0.00 0.00 41 1013.9
20260902173106 95 355 3.0 9.0 0.00 0.00 0.00 43 1014.1
20260902171602 93 123 2.0 8.0 0.00 0.00 0.00 45 1014.2
20260902164559 95 155 1.0 8.0 0.00 0.00 0.00 44 1014.5
20260902163107 92 63 0.0 7.0 0.00 0.00 0.00 48 1014.6
20260902161556 93 297 2.0 5.0 0.00 0.00 0.00 47 1014.7
20260902160100 90 338 1.0 6.0 0.00 0.00 0.00 51 1014.8
20260902154553 90 0 1.0 3.0 0.00 0.00 0.00 56 1014.7
20260902153112 90 119 3.0 8.0 0.00 0.00 0.00 56 1014.8
20260902151558 88 130 1.0 7.0 0.00 0.00 0.00 58 1014.9
20260902150056 87 239 1.0 6.0 0.00 0.00 0.00 61 1014.8
20260902144554 85 98 1.0 4.0 0.00 0.00 0.00 63 1014.7
20260902143102 85 154 1.0 7.0 0.00 0.00 0.00 64 1014.7
20260902141557 83 142 4.0 8.0 0.00 0.00 0.00 67 1014.8
20260902140100 81 164 3.0 8.0 0.00 0.00 0.00 71 1014.9
20260902134558 80 114 3.0 8.0 0.00 0.00 0.00 73 1014.8
20260902133107 79 92 4.0 8.0 0.00 0.00 0.00 75 1014.7
20260902131601 78 131 2.0 6.0 0.00 0.00 0.00 77 1014.6
20260902130052 77 112 2.0 6.0 0.00 0.00 0.00 78 1014.3
20260902124557 76 130 3.0 6.0 0.00 0.00 0.00 79 1014.2
20260902123120 76 98 2.0 4.0 0.00 0.00 0.00 80 1014.0
20260902121603 76 127 2.0 4.0 0.00 0.00 0.00 80 1014.1
20260902120111 76 131 2.0 4.0 0.00 0.00 0.00 80 1014.0
20260902114555 74 131 2.0 4.0 0.00 0.00 0.00 82 1013.9
20260902113100 74 0 0.0 0.0 0.00 0.00 0.00 81 1014.1
20260902111604 76 0 0.0 4.0 0.00 0.00 0.00 79 1014.0
20260902110054 76 131 2.0 4.0 0.00 0.00 0.00 78 1013.9
20260902104552 75 131 1.0 3.0 0.00 0.00 0.00 80 1013.9
20260902103058 75 0 0.0 2.0 0.00 0.00 0.00 81 1014.0
20260902101557 76 0 0.0 2.0 0.00 0.00 0.00 78 1013.8
20260902100107 76 131 0.0 2.0 0.00 0.00 0.00 77 1013.7
20260902094601 78 131 1.0 3.0 0.00 0.00 0.00 76 1013.8
20260902093058 78 0 1.0 3.0 0.00 0.00 0.00 75 1013.7
20260902091556 77 131 1.0 2.0 0.00 0.00 0.00 76 1013.8
20260902090100 77 0 0.0 1.0 0.00 0.00 0.00 76 1014.0
20260902084603 79 0 0.0 3.0 0.00 0.00 0.00 73 1014.0
20260902083133 79 131 1.0 3.0 0.00 0.00 0.00 73 1014.0
20260902081553 79 0 0.0 3.0 0.00 0.00 0.00 72 1014.1
20260902080054 79 131 1.0 4.0 0.00 0.00 0.00 72 1014.1
20260902074602 79 0 0.0 2.0 0.00 0.00 0.00 72 1014.0
20260902073055 80 0 0.0 2.0 0.00 0.00 0.00 70 1014.2
20260902071554 81 114 1.0 4.0 0.00 0.00 0.00 70 1014.2
20260902070058 81 109 0.0 4.0 0.00 0.00 0.00 69 1014.2
20260902064554 81 148 2.0 4.0 0.00 0.00 0.00 68 1014.2
20260902063059 81 122 2.0 5.0 0.00 0.00 0.00 67 1014.3
20260902061600 82 138 1.0 7.0 0.00 0.00 0.00 67 1014.4
20260902060116 82 192 2.0 6.0 0.00 0.00 0.00 66 1014.2
20260902054556 82 116 2.0 6.0 0.00 0.00 0.00 65 1014.1